Flag for Sweden Weather past 2 weeks in Uppsala, Sweden

Now
59 °F

Sunny.


Feels Like: 57 °F
Forecast: 44 / 62 °F
Wind: 13 mph from Northwest

Location: Stockholm / Arlanda

Current Time: May 23, 2015 at 7:26:08 PM

Latest Report: May 23, 2015 at 6:50 PM


Visibility: 10 mi

Pressure: 29.89 "Hg

Humidity: 27%

Dew point: 25 °F

Location of UppsalaLocation

Historic Weather in Uppsala — Graph

°F

Uppsala temperature yesterday

Maximum temperature yesterday: 57 °F (at 2:20 PM)
Minimum temperature yesterday: 45 °F (at 3:20 AM)
Average temperature yesterday: 52 °F

Past Weeks' High & Low Weather Summary

 TemperatureHumidityPressure
High63 °F (May 11, 3:50 PM)100% (May 10, 7:50 AM)30.18 "Hg (May 10, 7:50 AM)
Low28 °F (May 16, 4:20 AM)27% (May 23, 6:20 PM)29.36 "Hg (May 13, 5:20 AM)
Average48 °F74%29.81 "Hg
* Reported May 8 6:20 PM — May 23 6:20 PM, Uppsala, Weather by CustomWeather, © 2015

Note: Actual official high and low records may vary slightly from our data, if they occured in-between our weather recording intervals... More about our weather records

Advertising

Uppsala weather history for previous 24 hours

 ConditionsComfort  
Time TempWeatherWind HumidityBarometerVisibility
6:20 PM
Sat, May 23
59 °FSunny.12 mph27%29.89 "Hg10 mi
5:50 PM59 °FPassing clouds.13 mph29%29.89 "HgN/A
5:20 PM59 °FSunny.13 mph29%29.89 "Hg10 mi
4:50 PM59 °FSunny.15 mph31%29.86 "Hg10 mi
4:20 PM59 °FSunny.16 mph29%29.86 "Hg10 mi
3:50 PM59 °FSunny.17 mph31%29.86 "Hg10 mi
3:20 PM59 °FPassing clouds.16 mph31%29.86 "HgN/A
2:50 PM57 °FSunny.17 mph33%29.86 "Hg10 mi
2:20 PM57 °FPassing clouds.18 mph33%29.86 "HgN/A
1:50 PM55 °FPassing clouds.16 mph41%29.86 "HgN/A
1:20 PM55 °FPassing clouds.17 mph41%29.83 "HgN/A
12:50 PM54 °FSunny.16 mph54%29.83 "Hg10 mi
12:20 PM52 °FLight rain. Scattered clouds.16 mph54%29.83 "HgN/A
11:50 AM52 °FScattered clouds.15 mph62%29.83 "HgN/A
11:20 AM50 °FPartly sunny.12 mph71%29.83 "HgN/A
10:50 AM52 °FSprinkles. Scattered clouds.16 mph54%29.80 "HgN/A
10:20 AM50 °FMore clouds than sun.18 mph62%29.80 "HgN/A
9:50 AM52 °FScattered clouds.21 mph58%29.80 "HgN/A
9:20 AM50 °FScattered clouds.24 mph58%29.77 "HgN/A
8:50 AM50 °FScattered clouds.23 mph62%29.77 "HgN/A
8:20 AM50 °FPassing clouds.23 mph62%29.77 "HgN/A
7:50 AM48 °FPassing clouds.24 mph66%29.74 "HgN/A
7:20 AM48 °FPassing clouds.23 mph66%29.74 "HgN/A
6:50 AM48 °FPassing clouds.21 mph66%29.74 "HgN/A
6:20 AM48 °FPassing clouds.24 mph71%29.74 "HgN/A
5:20 AM48 °FScattered clouds.21 mph71%29.71 "HgN/A
4:50 AM48 °FPassing clouds.22 mph76%29.71 "HgN/A
4:20 AM48 °FPassing clouds.23 mph82%29.71 "HgN/A
3:50 AM50 °FPartly cloudy.22 mph82%29.71 "HgN/A
3:20 AM50 °FPartly cloudy.20 mph82%29.71 "HgN/A
2:50 AM50 °FLight rain. Partly cloudy.25 mph88%29.71 "Hg4 mi
2:20 AM54 °FLight rain. Passing clouds.20 mph77%29.68 "Hg5 mi
1:50 AM54 °FPassing clouds.20 mph77%29.68 "HgN/A
1:20 AM54 °FPassing clouds.20 mph77%29.71 "HgN/A
12:50 AM54 °FPassing clouds.20 mph72%29.74 "HgN/A
12:20 AM54 °FPassing clouds.18 mph72%29.74 "HgN/A
11:50 PM
Fri, May 22
54 °FPassing clouds.17 mph72%29.77 "HgN/A
11:20 PM54 °FPassing clouds.16 mph77%29.80 "HgN/A
10:50 PM54 °FPassing clouds.17 mph77%29.80 "HgN/A
10:20 PM54 °FDrizzle. Partly sunny.16 mph77%29.83 "HgN/A
9:50 PM55 °FBroken clouds.15 mph72%29.83 "HgN/A
9:20 PM55 °FPartly sunny.14 mph67%29.86 "HgN/A
8:50 PM55 °FPartly sunny.14 mph67%29.86 "HgN/A
8:20 PM55 °FPartly sunny.14 mph67%29.89 "HgN/A
7:50 PM57 °FPartly sunny.14 mph63%29.89 "HgN/A
7:20 PM57 °FPartly sunny.16 mph63%29.89 "HgN/A
Weather by CustomWeather, © 2015

See weather overviewHow to use our weather pages